Time,TemperatureF,DewpointF,PressureIn,WindDirection,WindDirectionDegrees,WindSpeedMPH,WindSpeedGustMPH,Humidity,HourlyPrecipIn,Conditions,Clouds,dailyrainin,SoftwareType,DateUTC
2013-01-21 00:04:00,24.0,5.0,29.78,West,270,15.0,25.0,43,0.00,,,0.00,,2013-01-21 05:04:00,
2013-01-21 00:12:00,24.0,5.0,29.78,West,270,15.0,25.0,43,0.00,,,0.00,,2013-01-21 05:12:00,
2013-01-21 00:22:00,24.0,5.0,29.78,WNW,302,16.0,27.0,44,0.00,,,0.00,,2013-01-21 05:22:00,
2013-01-21 00:34:00,23.0,4.0,29.79,NW,317,16.0,30.0,44,0.00,,,0.00,,2013-01-21 05:34:00,
2013-01-21 00:42:00,23.0,4.0,29.79,NW,317,16.0,30.0,44,0.00,,,0.00,,2013-01-21 05:42:00,
2013-01-21 00:52:00,23.0,4.0,29.79,WNW,298,16.0,27.0,44,0.00,,,0.00,,2013-01-21 05:52:00,
2013-01-21 01:03:00,22.0,3.0,29.80,WSW,250,16.0,27.0,43,0.00,,,0.00,,2013-01-21 06:03:00,
2013-01-21 01:13:00,22.0,3.0,29.80,WSW,250,16.0,27.0,43,0.00,,,0.00,,2013-01-21 06:13:00,
2013-01-21 01:23:00,22.0,4.0,29.81,WNW,286,14.0,29.0,45,0.00,,,0.00,,2013-01-21 06:23:00,
2013-01-21 01:33:00,21.0,3.0,29.81,WNW,300,13.0,22.0,45,0.00,,,0.00,,2013-01-21 06:33:00,
2013-01-21 01:43:00,21.0,3.0,29.81,WNW,300,13.0,22.0,45,0.00,,,0.00,,2013-01-21 06:43:00,
2013-01-21 01:52:00,20.0,3.0,29.82,NW,307,15.0,23.0,46,0.00,,,0.00,,2013-01-21 06:52:00,
2013-01-21 02:03:00,20.0,2.0,29.83,WSW,250,18.0,29.0,44,0.00,,,0.00,,2013-01-21 07:03:00,
2013-01-21 02:13:00,20.0,2.0,29.83,WSW,250,18.0,29.0,44,0.00,,,0.00,,2013-01-21 07:13:00,
2013-01-21 02:23:00,20.0,1.0,29.84,West,280,17.0,32.0,43,0.00,,,0.00,,2013-01-21 07:23:00,
2013-01-21 02:33:00,19.0,0.0,29.84,NW,313,18.0,29.0,43,0.00,,,0.00,,2013-01-21 07:33:00,
2013-01-21 02:42:00,19.0,0.0,29.84,NW,313,18.0,29.0,43,0.00,,,0.00,,2013-01-21 07:42:00,
2013-01-21 02:52:00,19.0,1.0,29.85,WNW,288,16.0,31.0,44,0.00,,,0.00,,2013-01-21 07:52:00,
2013-01-21 03:03:00,19.0,1.0,29.85,NW,309,18.0,33.0,44,0.00,,,0.00,,2013-01-21 08:03:00,
2013-01-21 03:14:00,19.0,1.0,29.85,NW,309,18.0,33.0,44,0.00,,,0.00,,2013-01-21 08:14:00,
2013-01-21 03:23:00,19.0,0.0,29.86,West,281,17.0,29.0,43,0.00,,,0.00,,2013-01-21 08:23:00,
2013-01-21 03:33:00,18.0,-1.0,29.87,NW,315,15.0,25.0,43,0.00,,,0.00,,2013-01-21 08:33:00,
2013-01-21 03:42:00,18.0,-1.0,29.87,NW,315,15.0,25.0,43,0.00,,,0.00,,2013-01-21 08:42:00,
2013-01-21 03:53:00,18.0,-2.0,29.87,West,269,21.0,34.0,41,0.00,,,0.00,,2013-01-21 08:53:00,
2013-01-21 04:03:00,18.0,-2.0,29.88,WNW,284,19.0,33.0,41,0.00,,,0.00,,2013-01-21 09:03:00,
2013-01-21 04:12:00,18.0,-2.0,29.88,WNW,284,19.0,33.0,41,0.00,,,0.00,,2013-01-21 09:12:00,
2013-01-21 04:23:00,17.0,-4.0,29.88,West,264,22.0,38.0,39,0.00,,,0.00,,2013-01-21 09:23:00,
2013-01-21 04:33:00,17.0,-2.0,29.90,West,281,20.0,34.0,42,0.00,,,0.00,,2013-01-21 09:33:00,
2013-01-21 04:42:00,17.0,-2.0,29.90,West,281,20.0,34.0,42,0.00,,,0.00,,2013-01-21 09:42:00,
2013-01-21 04:53:00,17.0,-2.0,29.89,WNW,287,20.0,30.0,43,0.00,,,0.00,,2013-01-21 09:53:00,
2013-01-21 05:02:00,16.0,-3.0,29.91,West,275,22.0,43.0,41,0.00,,,0.00,,2013-01-21 10:02:00,
2013-01-21 05:12:00,16.0,-3.0,29.91,West,275,22.0,43.0,41,0.00,,,0.00,,2013-01-21 10:12:00,
2013-01-21 05:22:00,16.0,-2.0,29.91,WNW,294,17.0,31.0,44,0.00,,,0.00,,2013-01-21 10:22:00,
2013-01-21 05:33:00,15.0,-3.0,29.93,WNW,293,16.0,24.0,43,0.00,,,0.00,,2013-01-21 10:33:00,
2013-01-21 05:43:00,15.0,-3.0,29.93,WNW,293,16.0,24.0,43,0.00,,,0.00,,2013-01-21 10:43:00,
2013-01-21 05:52:00,15.0,-4.0,29.93,WNW,293,19.0,29.0,42,0.00,,,0.00,,2013-01-21 10:52:00,
2013-01-21 06:03:00,15.0,-2.0,29.94,WNW,286,13.0,30.0,45,0.00,,,0.00,,2013-01-21 11:03:00,
2013-01-21 06:13:00,15.0,-2.0,29.94,WNW,286,13.0,30.0,45,0.00,,,0.00,,2013-01-21 11:13:00,
2013-01-21 06:23:00,15.0,-2.0,29.95,West,267,13.0,26.0,45,0.00,,,0.00,,2013-01-21 11:23:00,
2013-01-21 06:33:00,14.0,-3.0,29.95,WNW,286,13.0,27.0,45,0.00,,,0.00,,2013-01-21 11:33:00,
2013-01-21 06:43:00,14.0,-3.0,29.95,WNW,286,13.0,27.0,45,0.00,,,0.00,,2013-01-21 11:43:00,
2013-01-21 06:53:00,14.0,-3.0,29.96,WNW,303,13.0,27.0,46,0.00,,,0.00,,2013-01-21 11:53:00,
2013-01-21 07:03:00,14.0,-3.0,29.96,WNW,285,15.0,28.0,45,0.00,,,0.00,,2013-01-21 12:03:00,
2013-01-21 07:12:00,14.0,-3.0,29.96,WNW,285,15.0,28.0,45,0.00,,,0.00,,2013-01-21 12:12:00,
2013-01-21 07:22:00,13.0,-4.0,29.97,WNW,293,17.0,25.0,45,0.00,,,0.00,,2013-01-21 12:22:00,
2013-01-21 07:33:00,13.0,-4.0,29.97,West,275,14.0,29.0,46,0.00,,,0.00,,2013-01-21 12:33:00,
2013-01-21 07:42:00,13.0,-4.0,29.97,West,275,14.0,29.0,46,0.00,,,0.00,,2013-01-21 12:42:00,
2013-01-21 07:52:00,13.0,-3.0,29.97,WSW,257,12.0,26.0,47,0.00,,,0.00,,2013-01-21 12:52:00,
2013-01-21 08:03:00,13.0,-3.0,29.98,West,266,12.0,24.0,48,0.00,,,0.00,,2013-01-21 13:03:00,
2013-01-21 08:13:00,13.0,-3.0,29.98,West,266,12.0,24.0,48,0.00,,,0.00,,2013-01-21 13:13:00,
2013-01-21 08:23:00,13.0,-4.0,29.98,West,275,13.0,26.0,46,0.00,,,0.00,,2013-01-21 13:23:00,
2013-01-21 08:33:00,14.0,-2.0,30.00,West,276,13.0,24.0,47,0.00,,,0.00,,2013-01-21 13:33:00,
2013-01-21 08:43:00,14.0,-2.0,30.00,West,276,13.0,24.0,47,0.00,,,0.00,,2013-01-21 13:43:00,
2013-01-21 08:53:00,14.0,-3.0,30.00,WNW,296,15.0,28.0,46,0.00,,,0.00,,2013-01-21 13:53:00,
2013-01-21 09:03:00,14.0,-4.0,30.01,WNW,292,14.0,28.0,44,0.00,,,0.00,,2013-01-21 14:03:00,
2013-01-21 09:12:00,14.0,-4.0,30.01,WNW,292,14.0,28.0,44,0.00,,,0.00,,2013-01-21 14:12:00,
2013-01-21 09:23:00,14.0,-4.0,30.01,West,277,15.0,26.0,43,0.00,,,0.00,,2013-01-21 14:23:00,
2013-01-21 09:33:00,15.0,-3.0,30.01,WNW,300,11.0,21.0,43,0.00,,,0.00,,2013-01-21 14:33:00,
2013-01-21 09:43:00,15.0,-3.0,30.01,WNW,300,11.0,21.0,43,0.00,,,0.00,,2013-01-21 14:43:00,
2013-01-21 09:53:00,16.0,-4.0,30.01,West,271,14.0,21.0,40,0.00,,,0.00,,2013-01-21 14:53:00,
2013-01-21 10:03:00,16.0,-5.0,30.03,West,263,10.0,23.0,39,0.00,,,0.00,,2013-01-21 15:03:00,
2013-01-21 10:13:00,16.0,-5.0,30.03,West,263,10.0,23.0,39,0.00,,,0.00,,2013-01-21 15:13:00,
2013-01-21 10:23:00,16.0,-5.0,30.03,West,265,13.0,24.0,39,0.00,,,0.00,,2013-01-21 15:23:00,
2013-01-21 10:33:00,17.0,-5.0,30.03,West,265,15.0,24.0,36,0.00,,,0.00,,2013-01-21 15:33:00,
2013-01-21 10:43:00,17.0,-5.0,30.03,West,265,15.0,24.0,36,0.00,,,0.00,,2013-01-21 15:43:00,
2013-01-21 10:53:00,17.0,-6.0,30.03,WNW,283,10.0,23.0,35,0.00,,,0.00,,2013-01-21 15:53:00,
2013-01-21 11:04:00,18.0,-5.0,30.02,West,268,9.0,20.0,35,0.00,,,0.00,,2013-01-21 16:04:00,
2013-01-21 11:13:00,18.0,-5.0,30.02,West,268,9.0,20.0,35,0.00,,,0.00,,2013-01-21 16:13:00,
2013-01-21 11:23:00,18.0,-5.0,30.02,WNW,286,8.0,20.0,35,0.00,,,0.00,,2013-01-21 16:23:00,
2013-01-21 11:33:00,19.0,-5.0,30.00,NNW,346,11.0,17.0,34,0.00,,,0.00,,2013-01-21 16:33:00,
2013-01-21 11:43:00,19.0,-5.0,30.00,NNW,346,11.0,17.0,34,0.00,,,0.00,,2013-01-21 16:43:00,
2013-01-21 11:53:00,19.0,-5.0,29.99,West,265,10.0,19.0,34,0.00,,,0.00,,2013-01-21 16:53:00,
2013-01-21 12:03:00,20.0,-6.0,29.98,NNW,342,7.0,17.0,31,0.00,,,0.00,,2013-01-21 17:03:00,
2013-01-21 12:12:00,20.0,-6.0,29.98,NNW,342,7.0,17.0,31,0.00,,,0.00,,2013-01-21 17:12:00,
2013-01-21 12:23:00,21.0,-5.0,29.97,North,355,14.0,19.0,31,0.00,,,0.00,,2013-01-21 17:23:00,
2013-01-21 12:33:00,20.0,-6.0,29.98,WSW,254,9.0,14.0,30,0.00,,,0.00,,2013-01-21 17:33:00,
2013-01-21 12:43:00,20.0,-6.0,29.98,WSW,254,9.0,14.0,30,0.00,,,0.00,,2013-01-21 17:43:00,
2013-01-21 12:53:00,20.0,-6.0,29.98,WNW,285,13.0,20.0,30,0.00,,,0.00,,2013-01-21 17:53:00,
2013-01-21 13:03:00,21.0,-4.0,29.97,WNW,297,9.0,19.0,32,0.00,,,0.00,,2013-01-21 18:03:00,
2013-01-21 13:12:00,21.0,-4.0,29.97,WNW,297,9.0,19.0,32,0.00,,,0.00,,2013-01-21 18:12:00,
2013-01-21 13:23:00,20.0,-6.0,29.97,West,262,13.0,20.0,30,0.00,,,0.00,,2013-01-21 18:23:00,
2013-01-21 13:33:00,21.0,-4.0,29.97,West,262,5.0,12.0,32,0.00,,,0.00,,2013-01-21 18:33:00,
2013-01-21 13:43:00,21.0,-4.0,29.97,West,262,5.0,12.0,32,0.00,,,0.00,,2013-01-21 18:43:00,
2013-01-21 13:52:00,21.0,-4.0,29.96,WSW,240,6.0,13.0,32,0.00,,,0.00,,2013-01-21 18:52:00,
2013-01-21 14:03:00,21.0,-7.0,29.96,SSW,213,5.0,16.0,28,0.00,,,0.00,,2013-01-21 19:03:00,
2013-01-21 14:12:00,22.0,-5.0,29.97,West,262,9.0,13.0,29,0.00,,,0.00,,2013-01-21 19:12:00,
2013-01-21 14:22:00,22.0,-5.0,29.97,West,262,9.0,13.0,29,0.00,,,0.00,,2013-01-21 19:22:00,
2013-01-21 14:33:00,22.0,-5.0,29.97,WNW,302,10.0,15.0,29,0.00,,,0.00,,2013-01-21 19:33:00,
2013-01-21 14:43:00,22.0,-5.0,29.97,WNW,302,10.0,15.0,29,0.00,,,0.00,,2013-01-21 19:43:00,
2013-01-21 14:53:00,21.0,-7.0,29.97,WSW,246,5.0,10.0,28,0.00,,,0.00,,2013-01-21 19:53:00,
2013-01-21 15:04:00,21.0,-7.0,29.97,WSW,255,9.0,14.0,28,0.00,,,0.00,,2013-01-21 20:04:00,
2013-01-21 15:12:00,21.0,-7.0,29.97,WSW,255,9.0,14.0,28,0.00,,,0.00,,2013-01-21 20:12:00,
2013-01-21 15:23:00,21.0,-7.0,29.97,WSW,248,8.0,15.0,28,0.00,,,0.00,,2013-01-21 20:23:00,
2013-01-21 15:33:00,21.0,-6.0,29.97,WNW,293,3.0,8.0,29,0.00,,,0.00,,2013-01-21 20:33:00,
2013-01-21 15:43:00,21.0,-6.0,29.97,WNW,293,3.0,8.0,29,0.00,,,0.00,,2013-01-21 20:43:00,
2013-01-21 15:53:00,21.0,-7.0,29.97,WNW,301,2.0,6.0,28,0.00,,,0.00,,2013-01-21 20:53:00,
2013-01-21 16:04:00,21.0,-6.0,29.97,West,276,5.0,10.0,29,0.00,,,0.00,,2013-01-21 21:04:00,
2013-01-21 16:12:00,21.0,-6.0,29.97,West,276,5.0,10.0,29,0.00,,,0.00,,2013-01-21 21:12:00,
2013-01-21 16:23:00,21.0,-6.0,29.97,WNW,295,3.0,7.0,30,0.00,,,0.00,,2013-01-21 21:23:00,
2013-01-21 16:33:00,21.0,-2.0,29.97,NNE,19,1.0,2.0,36,0.00,,,0.00,,2013-01-21 21:33:00,
2013-01-21 16:43:00,21.0,-2.0,29.97,NNE,19,1.0,2.0,36,0.00,,,0.00,,2013-01-21 21:43:00,
2013-01-21 16:53:00,20.0,-4.0,29.97,NNE,20,0.0,1.0,34,0.00,,,0.00,,2013-01-21 21:53:00,
2013-01-21 17:03:00,20.0,0.0,29.96,NNE,24,0.0,0.0,40,0.00,,,0.00,,2013-01-21 22:03:00,
2013-01-21 17:13:00,20.0,0.0,29.96,NNE,24,0.0,0.0,40,0.00,,,0.00,,2013-01-21 22:13:00,
2013-01-21 17:23:00,20.0,-3.0,29.97,NNE,26,0.0,0.0,35,0.00,,,0.00,,2013-01-21 22:23:00,
2013-01-21 17:33:00,19.0,-2.0,29.96,NE,34,0.0,0.0,39,0.00,,,0.00,,2013-01-21 22:33:00,
2013-01-21 17:43:00,19.0,-2.0,29.96,NE,34,0.0,0.0,39,0.00,,,0.00,,2013-01-21 22:43:00,
2013-01-21 17:52:00,19.0,-1.0,29.96,NE,34,0.0,0.0,40,0.00,,,0.00,,2013-01-21 22:52:00,
2013-01-21 18:03:00,19.0,1.0,29.95,NE,34,0.0,0.0,44,0.00,,,0.00,,2013-01-21 23:03:00,
2013-01-21 18:13:00,19.0,1.0,29.95,NE,34,0.0,0.0,44,0.00,,,0.00,,2013-01-21 23:13:00,
2013-01-21 18:23:00,19.0,4.0,29.95,NE,34,0.0,0.0,51,0.00,,,0.00,,2013-01-21 23:23:00,
2013-01-21 18:33:00,19.0,4.0,29.95,NE,34,0.0,0.0,52,0.00,,,0.00,,2013-01-21 23:33:00,
2013-01-21 18:42:00,19.0,4.0,29.95,NE,34,0.0,0.0,52,0.00,,,0.00,,2013-01-21 23:42:00,
2013-01-21 18:53:00,19.0,3.0,29.95,ENE,57,1.0,2.0,49,0.00,,,0.00,,2013-01-21 23:53:00,
2013-01-21 19:03:00,19.0,5.0,29.95,NE,44,1.0,3.0,54,0.00,,,0.00,,2013-01-22 00:03:00,
2013-01-21 19:12:00,19.0,5.0,29.95,NE,44,1.0,3.0,54,0.00,,,0.00,,2013-01-22 00:12:00,
2013-01-21 19:22:00,19.0,4.0,29.94,NE,40,2.0,4.0,52,0.00,,,0.00,,2013-01-22 00:22:00,
2013-01-21 19:33:00,20.0,3.0,29.95,NNE,32,0.0,2.0,47,0.00,,,0.00,,2013-01-22 00:33:00,
2013-01-21 19:43:00,20.0,3.0,29.95,NNE,32,0.0,2.0,47,0.00,,,0.00,,2013-01-22 00:43:00,
2013-01-21 19:53:00,20.0,4.0,29.95,NNE,32,0.0,1.0,49,0.00,,,0.00,,2013-01-22 00:53:00,
2013-01-21 20:02:00,20.0,5.0,29.96,North,355,1.0,3.0,51,0.00,,,0.00,,2013-01-22 01:02:00,
2013-01-21 20:12:00,20.0,5.0,29.96,North,355,1.0,3.0,51,0.00,,,0.00,,2013-01-22 01:12:00,
2013-01-21 20:23:00,20.0,4.0,29.96,North,9,0.0,3.0,48,0.00,,,0.00,,2013-01-22 01:23:00,
2013-01-21 20:33:00,20.0,4.0,29.96,NNW,335,3.0,5.0,50,0.00,,,0.00,,2013-01-22 01:33:00,
2013-01-21 20:43:00,20.0,4.0,29.96,NNW,335,3.0,5.0,50,0.00,,,0.00,,2013-01-22 01:43:00,
2013-01-21 20:52:00,20.0,4.0,29.95,NE,34,1.0,6.0,50,0.00,,,0.00,,2013-01-22 01:52:00,
2013-01-21 21:03:00,20.0,6.0,29.95,North,355,4.0,7.0,54,0.00,,,0.00,,2013-01-22 02:03:00,
2013-01-21 21:12:00,20.0,6.0,29.95,North,355,4.0,7.0,54,0.00,,,0.00,,2013-01-22 02:12:00,
2013-01-21 21:22:00,20.0,6.0,29.94,North,5,2.0,6.0,55,0.00,,,0.00,,2013-01-22 02:22:00,
2013-01-21 21:33:00,20.0,6.0,29.95,NNW,338,4.0,7.0,55,0.00,,,0.00,,2013-01-22 02:33:00,
2013-01-21 21:43:00,20.0,6.0,29.95,NNW,338,4.0,7.0,55,0.00,,,0.00,,2013-01-22 02:43:00,
2013-01-21 21:53:00,20.0,9.0,29.95,NNW,333,5.0,8.0,61,0.00,,,0.00,,2013-01-22 02:53:00,
2013-01-21 22:03:00,20.0,10.0,29.95,North,5,4.0,8.0,64,0.00,,,0.00,,2013-01-22 03:03:00,
2013-01-21 22:12:00,20.0,10.0,29.95,North,5,4.0,8.0,64,0.00,,,0.00,,2013-01-22 03:12:00,
2013-01-21 22:22:00,20.0,10.0,29.95,NNE,14,2.0,6.0,65,0.00,,,0.00,,2013-01-22 03:22:00,
2013-01-21 22:33:00,19.0,10.0,29.95,North,11,7.0,10.0,66,0.00,,,0.00,,2013-01-22 03:33:00,
2013-01-21 22:42:00,19.0,10.0,29.95,North,11,7.0,10.0,66,0.00,,,0.00,,2013-01-22 03:42:00,
2013-01-21 22:52:00,19.0,11.0,29.95,North,355,4.0,7.0,69,0.00,,,0.00,,2013-01-22 03:52:00,
2013-01-21 23:03:00,18.0,11.0,29.94,NNE,26,5.0,9.0,73,0.00,,,0.00,,2013-01-22 04:03:00,
2013-01-21 23:12:00,18.0,11.0,29.94,NNE,26,5.0,9.0,73,0.00,,,0.00,,2013-01-22 04:12:00,
2013-01-21 23:22:00,18.0,12.0,29.92,NE,36,4.0,11.0,77,0.00,,,0.00,,2013-01-22 04:22:00,
2013-01-21 23:33:00,18.0,13.0,29.90,ENE,60,5.0,11.0,81,0.00,,,0.00,,2013-01-22 04:33:00,
2013-01-21 23:42:00,18.0,13.0,29.90,ENE,60,5.0,11.0,81,0.00,,,0.00,,2013-01-22 04:42:00,
2013-01-21 23:52:00,18.0,14.0,29.90,NNE,20,5.0,8.0,83,0.00,,,0.00,,2013-01-22 04:52:00,